| time (UTC) | temp F | wind direction | speed knots | gust knots | rain 1hr in | rain 24hr in | rain mn in | humidity % | barometer mb |
| 20260831010004 | 63 | 218 | 1.7 | 8.7 | 0.00 | 0.10 | 0.00 | 88 | 1005.7 |
| 20260830234504 | 64 | 251 | 1.7 | 10.4 | 0.00 | 0.10 | 0.00 | 88 | 1005.2 |
| 20260830233003 | 64 | 271 | 2.6 | 11.3 | 0.00 | 0.10 | 0.00 | 88 | 1005.5 |
| 20260830231504 | 64 | 242 | 2.6 | 8.7 | 0.00 | 0.10 | 0.00 | 89 | 1005.4 |
| 20260830230004 | 64 | 243 | 1.7 | 5.2 | 0.00 | 0.10 | 0.00 | 89 | 1005.2 |
| 20260830224504 | 65 | 273 | 1.7 | 11.3 | 0.00 | 0.10 | 0.00 | 89 | 1003.9 |
| 20260830220005 | 65 | 211 | 2.6 | 7.0 | 0.00 | 0.10 | 0.00 | 92 | 1003.9 |
| 20260830214504 | 65 | 204 | 2.6 | 8.7 | 0.00 | 0.10 | 0.10 | 92 | 1003.5 |
| 20260830213005 | 65 | 211 | 2.6 | 7.8 | 0.00 | 0.10 | 0.10 | 92 | 1003.5 |
| 20260830211504 | 65 | 203 | 3.5 | 7.0 | 0.00 | 0.10 | 0.10 | 92 | 1003.5 |
| 20260830210004 | 65 | 209 | 3.5 | 7.8 | 0.00 | 0.10 | 0.10 | 92 | 1003.2 |
| 20260830204504 | 65 | 175 | 2.6 | 7.8 | 0.00 | 0.10 | 0.10 | 92 | 1003.1 |
| 20260830201504 | 65 | 213 | 3.5 | 10.4 | 0.00 | 0.10 | 0.10 | 93 | 1002.6 |
| 20260830193005 | 65 | 204 | 4.3 | 10.4 | 0.00 | 0.10 | 0.10 | 92 | 1002.7 |
| 20260830191504 | 65 | 179 | 4.3 | 10.4 | 0.00 | 0.10 | 0.10 | 92 | 1002.8 |
| 20260830183004 | 65 | 197 | 4.3 | 12.2 | 0.00 | 0.10 | 0.10 | 92 | 1003.0 |
| 20260830181504 | 65 | 202 | 3.5 | 12.2 | 0.00 | 0.10 | 0.10 | 92 | 1002.8 |
| 20260830174504 | 65 | 202 | 4.3 | 13.0 | 0.00 | 0.10 | 0.10 | 93 | 1002.9 |
| 20260830173004 | 65 | 188 | 3.5 | 13.0 | 0.00 | 0.10 | 0.10 | 93 | 1002.9 |
| 20260830171504 | 65 | 187 | 5.2 | 13.0 | 0.01 | 0.10 | 0.10 | 93 | 1002.8 |
| 20260830164504 | 65 | 198 | 5.2 | 12.2 | 0.01 | 0.10 | 0.10 | 92 | 1002.7 |
| 20260830163004 | 65 | 170 | 6.1 | 13.9 | 0.01 | 0.10 | 0.10 | 93 | 1002.8 |
| 20260830161504 | 65 | 176 | 6.1 | 13.9 | 0.02 | 0.09 | 0.09 | 92 | 1003.0 |
| 20260830160004 | 65 | 210 | 5.2 | 17.4 | 0.06 | 0.09 | 0.09 | 93 | 1003.0 |
| 20260830153006 | 65 | 192 | 4.3 | 13.0 | 0.06 | 0.09 | 0.09 | 92 | 1003.2 |
| 20260830151504 | 65 | 180 | 6.1 | 17.4 | 0.05 | 0.08 | 0.08 | 91 | 1003.2 |
| 20260830150005 | 66 | 188 | 6.1 | 17.4 | 0.01 | 0.04 | 0.04 | 90 | 1003.3 |
| 20260830144504 | 66 | 182 | 5.2 | 13.0 | 0.00 | 0.03 | 0.03 | 88 | 1003.6 |
| 20260830143005 | 66 | 193 | 5.2 | 17.4 | 0.02 | 0.03 | 0.03 | 88 | 1003.6 |
| 20260830134504 | 65 | 187 | 4.3 | 12.2 | 0.02 | 0.03 | 0.03 | 90 | 1003.9 |
| 20260830133006 | 66 | 182 | 4.3 | 10.4 | 0.01 | 0.02 | 0.02 | 89 | 1003.9 |
| 20260830124505 | 68 | 195 | 4.3 | 15.6 | 0.00 | 0.01 | 0.01 | 84 | 1003.9 |
| 20260830121504 | 68 | 194 | 5.2 | 11.3 | 0.00 | 0.01 | 0.01 | 84 | 1004.3 |
| 20260830120005 | 68 | 182 | 5.2 | 13.9 | 0.00 | 0.01 | 0.01 | 84 | 1004.3 |
| 20260830114505 | 68 | 200 | 5.2 | 11.3 | 0.00 | 0.01 | 0.01 | 84 | 1004.3 |
| 20260830113005 | 68 | 201 | 5.2 | 13.9 | 0.00 | 0.01 | 0.01 | 85 | 1004.3 |
| 20260830111504 | 68 | 180 | 4.3 | 11.3 | 0.01 | 0.01 | 0.01 | 86 | 1004.3 |
| 20260830103006 | 67 | 189 | 4.3 | 11.3 | 0.01 | 0.01 | 0.01 | 86 | 1004.3 |
| 20260830100005 | 71 | 212 | 5.2 | 13.9 | 0.00 | 0.00 | 0.00 | 80 | 1004.4 |
| 20260830093005 | 69 | 205 | 5.2 | 13.0 | 0.00 | 0.00 | 0.00 | 81 | 1004.6 |
| 20260830084505 | 68 | 190 | 4.3 | 10.4 | 0.00 | 0.00 | 0.00 | 79 | 1005.0 |
| 20260830081505 | 68 | 179 | 2.6 | 7.0 | 0.00 | 0.00 | 0.00 | 81 | 1005.0 |
| 20260830074505 | 67 | 157 | 1.7 | 5.2 | 0.00 | 0.00 | 0.00 | 87 | 1005.2 |
| 20260830070005 | 65 | 174 | 0.9 | 6.1 | 0.00 | 0.00 | 0.00 | 89 | 1005.6 |
| 20260830063005 | 65 | 170 | 1.7 | 7.0 | 0.00 | 0.00 | 0.00 | 91 | 1005.7 |
| 20260830061505 | 65 | 196 | 2.6 | 7.8 | 0.00 | 0.00 | 0.00 | 91 | 1005.7 |
| 20260830053006 | 64 | 196 | 2.6 | 7.0 | 0.00 | 0.00 | 0.00 | 94 | 1005.9 |
| 20260830051504 | 63 | 179 | 2.6 | 7.8 | 0.00 | 0.00 | 0.00 | 94 | 1006.0 |
| 20260830050005 | 63 | 175 | 1.7 | 5.2 | 0.00 | 0.00 | 0.00 | 94 | 1006.0 |
| 20260830043005 | 62 | 192 | 0.9 | 4.3 | 0.00 | 0.00 | 0.00 | 94 | 1006.0 |
| 20260830033007 | 61 | 157 | 0.9 | 2.6 | 0.00 | 0.02 | 0.00 | 93 | 1006.3 |
| 20260830024505 | 62 | 183 | 1.7 | 2.6 | 0.00 | 0.11 | 0.00 | 92 | 1006.1 |
| 20260830014505 | 62 | 153 | 0.9 | 2.6 | 0.00 | 0.20 | 0.00 | 92 | 1006.1 |
| 20260830013005 | 62 | 164 | 0.9 | 1.7 | 0.00 | 0.20 | 0.00 | 91 | 1006.1 |